Overview Statistics Trail Chart Weather Telemetry Raw packets
 

This is the latest recevied weather packets stored in our database for station/object 4S6DRJ-13. If no packets are shown the sender has not sent any weather packets the latest 10 day(s).

<< 110 111 112 113 114 115 116 >>
Time Temp. Humidity Pressure Rain* Wind** Luminosity Snow
1788291328 27.78° C 83% 1010 hPa 0 mm 0 m/s 0 W/m² -
1788291270 27.78° C 83% 1009.8 hPa 0 mm 0.89 m/s, 156° 0 W/m² -
1788291205 27.78° C 83% 1009.9 hPa 0 mm 0.45 m/s, 249° 0 W/m² -
1788291144 27.78° C 83% 1009.9 hPa 0 mm 0.89 m/s, 207° 0 W/m² -
1788291083 27.78° C 83% 1010 hPa 0 mm 0.89 m/s, 229° 0 W/m² -
1788291022 27.78° C 83% 1009.9 hPa 0 mm 0 m/s 0 W/m² -
1788290962 27.78° C 83% 1010 hPa 0 mm 0 m/s 0 W/m² -
1788290900 27.78° C 83% 1010.1 hPa 0 mm 0.89 m/s, 259° 0 W/m² -
1788290839 27.78° C 83% 1010 hPa 0 mm 0 m/s 0 W/m² -
1788290779 27.78° C 83% 1010.2 hPa 0 mm 0.89 m/s, 221° 0 W/m² -
1788290717 27.78° C 83% 1010 hPa 0 mm 0.45 m/s, 268° 0 W/m² -
1788290656 27.78° C 83% 1010 hPa 0 mm 0.89 m/s, 250° 0 W/m² -
1788290595 27.78° C 83% 1010.1 hPa 0 mm 0.89 m/s, 236° 0 W/m² -
1788290534 27.78° C 83% 1010.1 hPa 0 mm 2.24 m/s, 231° 0 W/m² -
1788290487 27.78° C 83% 1010.2 hPa 0 mm 0.89 m/s, 212° 0 W/m² -
1788290413 27.78° C 83% 1010.2 hPa 0 mm 1.34 m/s, 229° 0 W/m² -
1788290352 27.78° C 83% 1010.2 hPa 0 mm 0 m/s 0 W/m² -
1788290291 27.78° C 83% 1010 hPa 0 mm 1.34 m/s, 243° 0 W/m² -
1788290230 27.78° C 83% 1010.1 hPa 0 mm 0.89 m/s, 199° 0 W/m² -
1788290169 27.78° C 83% 1010.1 hPa 0 mm 0.45 m/s, 234° 0 W/m² -
1788290108 27.78° C 83% 1010.1 hPa 0 mm 0.45 m/s, 256° 0 W/m² -
1788290050 27.78° C 83% 1010 hPa 0 mm 0.89 m/s, 240° 0 W/m² -
1788289986 27.78° C 83% 1010 hPa 0 mm 0.89 m/s, 236° 0 W/m² -
1788289925 27.78° C 83% 1010.1 hPa 0 mm 0.45 m/s, 196° 0 W/m² -
1788289864 27.78° C 83% 1010.1 hPa 0 mm 0.89 m/s, 221° 0 W/m² -

* Rain latest hour (hover to see other rain measurements)
** Current wind speed in m/s (hover to see current wind gust speed)